Date String (YYYY-MM-DD hh:mm:ss) UTC,Instrument flags,Ambient pressure (hPa),Sample flow (lpm),Bypass flow (lpm),Sample temperature (°C),Ambient temperature (°C),ASC tube jacket temperature (°C),LED temperature (°C),Box temperature (°C),Sample RH (%),Span deviation,Mass concentration (μg/m³),Mass concentration (μg/m³),Mass concentration (μg/m³)
DateTimeUTC,F1_M11,P_M11,Q1_M11,Q2_M11,T1_M11,T2_M11,T3_M11,T4_M11,T5_M11,U1_M11,ZSPAN_M11,X0_M11,X2_M11,X1_M11
2021-10-03 06:00:00,,0832.2,4.99,0.00,30.3,29.3,00.0,39.5,32.0,16.5,0002.9,0011.40,0005.31,0004.61
2021-10-03 06:01:00,,0832.2,5.00,0.00,30.3,29.3,00.0,39.5,32.0,16.4,0002.5,0011.50,0005.35,0004.61
2021-10-03 06:02:00,,0832.2,5.01,0.00,30.3,29.2,00.0,39.5,32.0,16.4,0002.5,0011.61,0005.36,0004.61
2021-10-03 06:03:00,,0832.2,5.00,0.00,30.3,29.2,00.0,39.5,32.0,16.5,0002.5,0011.84,0005.36,0004.62
2021-10-03 06:04:00,,0832.2,4.99,0.00,30.3,29.3,00.0,39.5,32.0,16.5,0002.7,0011.87,0005.35,0004.61
2021-10-03 06:05:00,,0832.2,5.00,0.00,30.3,29.3,00.0,39.5,32.1,16.4,0002.3,0011.92,0005.35,0004.61
2021-10-03 06:06:00,,0832.2,5.01,0.00,30.3,29.3,00.0,39.5,32.0,16.5,0001.9,0011.83,0005.35,0004.60
2021-10-03 06:07:00,,0832.2,5.01,0.00,30.3,29.3,00.0,39.5,32.0,16.3,0002.0,0011.78,0005.36,0004.60
2021-10-03 06:08:00,,0832.2,4.99,0.00,30.3,29.3,00.0,39.5,32.0,16.3,0001.9,0011.18,0005.35,0004.59
2021-10-03 06:09:00,,0832.2,4.99,0.00,30.3,29.3,00.0,39.5,32.0,16.5,0001.5,0010.83,0005.31,0004.58
2021-10-03 06:10:00,,0832.2,5.00,0.00,30.3,29.2,00.0,39.5,32.0,16.4,0000.8,0011.12,0005.29,0004.57
2021-10-03 06:11:00,,0832.2,5.00,0.00,30.3,29.3,00.0,39.5,32.0,16.3,0001.6,0011.35,0005.28,0004.57
2021-10-03 06:12:00,,0832.2,5.00,0.00,30.3,29.2,00.0,39.5,32.0,16.3,0002.5,0011.54,0005.26,0004.57
2021-10-03 06:13:00,,0832.2,4.99,0.00,30.3,29.3,00.0,39.5,32.0,16.3,0002.5,0011.01,0005.24,0004.56
2021-10-03 06:14:00,,0832.2,5.00,0.00,30.3,29.3,00.0,39.5,32.0,16.2,0002.4,0010.72,0005.23,0004.55
2021-10-03 06:15:00,,0832.3,5.00,0.00,30.3,29.3,00.0,39.5,32.0,16.3,0002.2,0010.79,0005.25,0004.54
2021-10-03 06:16:00,,0832.2,5.00,0.00,30.3,29.3,00.0,39.5,32.0,16.6,0002.4,0010.79,0005.27,0004.56
2021-10-03 06:17:00,,0832.1,5.01,0.00,30.3,29.2,00.0,39.5,32.0,16.4,0002.3,0010.83,0005.28,0004.56
2021-10-03 06:18:00,,0832.2,4.99,0.00,30.3,29.3,00.0,39.5,32.0,16.4,0002.2,0010.94,0005.26,0004.56
2021-10-03 06:19:00,,0832.2,5.01,0.00,30.3,29.3,00.0,39.5,32.0,16.5,0002.5,0010.86,0005.20,0004.55
2021-10-03 06:20:00,,0832.2,5.00,0.00,30.3,29.2,00.0,39.5,32.0,16.3,0002.6,0011.37,0005.17,0004.55
2021-10-03 06:21:00,,0832.2,5.01,0.00,30.3,29.2,00.0,39.5,31.9,16.3,0002.8,0011.55,0005.20,0004.57
2021-10-03 06:22:00,,0832.2,5.01,0.00,30.3,29.2,00.0,39.5,32.0,16.4,0003.0,0011.20,0005.22,0004.57
2021-10-03 06:23:00,,0832.3,4.99,0.00,30.3,29.2,00.0,39.5,32.0,16.4,0002.8,0011.78,0005.23,0004.57
2021-10-03 06:24:00,,0832.2,5.01,0.00,30.3,29.2,00.0,39.5,32.0,16.3,0002.4,0011.94,0005.25,0004.58
2021-10-03 06:25:00,,0832.2,5.00,0.00,30.3,29.2,00.0,39.4,32.0,16.4,0002.4,0011.90,0005.25,0004.59
2021-10-03 06:26:00,,0832.3,4.99,0.00,30.3,29.2,00.0,39.4,32.0,16.3,0002.6,0011.88,0005.22,0004.59
2021-10-03 06:27:00,,0832.2,5.00,0.00,30.3,29.2,00.0,39.4,31.9,16.3,0002.7,0011.84,0005.21,0004.58
2021-10-03 06:28:00,,0832.2,5.00,0.00,30.3,29.2,00.0,39.4,31.9,16.2,0002.9,0011.73,0005.20,0004.57
2021-10-03 06:29:00,,0832.2,5.00,0.00,30.3,29.2,00.0,39.4,32.0,16.3,0002.8,0011.52,0005.18,0004.56
2021-10-03 06:30:00,,0832.2,5.00,0.00,30.3,29.2,00.0,39.4,32.0,16.4,0002.7,0011.56,0005.19,0004.55
2021-10-03 06:31:00,,0832.1,5.00,0.00,30.3,29.2,00.0,39.4,32.0,16.1,0002.9,0011.06,0005.22,0004.55
2021-10-03 06:32:00,,0832.2,5.00,0.00,30.3,29.2,00.0,39.4,32.0,16.1,0002.8,0010.33,0005.21,0004.54
2021-10-03 06:33:00,,0832.1,5.00,0.00,30.3,29.2,00.0,39.4,32.0,16.1,0002.6,0010.27,0005.19,0004.54
2021-10-03 06:34:00,,0832.1,5.01,0.00,30.3,29.2,00.0,39.4,32.0,16.0,0002.7,0009.78,0005.17,0004.53
2021-10-03 06:35:00,,0832.2,5.00,0.00,30.3,29.2,00.0,39.4,32.0,16.0,0003.0,0010.07,0005.13,0004.51
2021-10-03 06:36:00,,0832.2,5.00,0.00,30.3,29.2,00.0,39.4,32.0,16.0,0003.0,0010.18,0005.11,0004.51
2021-10-03 06:37:00,,0832.1,4.99,0.00,30.3,29.2,00.0,39.4,32.0,16.0,0003.1,0010.43,0005.14,0004.50
2021-10-03 06:38:00,,0832.1,5.02,0.00,30.3,29.2,00.0,39.4,32.0,15.9,0003.2,0011.44,0005.17,0004.50
2021-10-03 06:39:00,,0832.1,4.99,0.00,30.3,29.2,00.0,39.4,32.0,15.9,0003.1,0011.45,0005.13,0004.50
2021-10-03 06:40:00,,0832.1,5.01,0.00,30.3,29.2,00.0,39.4,32.0,15.9,0003.1,0011.43,0005.13,0004.50
2021-10-03 06:41:00,,0832.1,5.01,0.00,30.2,29.2,00.0,39.4,31.9,15.9,0003.2,0011.55,0005.12,0004.52
2021-10-03 06:42:00,,0832.1,4.99,0.00,30.2,29.2,00.0,39.4,31.9,15.9,0003.4,0011.48,0005.13,0004.52
2021-10-03 06:43:00,,0832.1,5.01,0.00,30.2,29.2,00.0,39.4,31.9,15.9,0002.5,0011.49,0005.14,0004.51
2021-10-03 06:44:00,,0832.1,4.99,0.00,30.2,29.2,00.0,39.4,31.9,15.9,0002.9,0011.81,0005.11,0004.50
2021-10-03 06:45:00,,0832.0,4.99,0.00,30.2,29.2,00.0,39.4,31.9,15.9,0003.3,0012.19,0005.15,0004.51
2021-10-03 06:46:00,,0832.1,5.01,0.00,30.2,29.2,00.0,39.4,31.9,15.8,0003.2,0011.90,0005.19,0004.51
2021-10-03 06:47:00,,0832.0,4.98,0.00,30.2,29.2,00.0,39.4,31.9,16.0,0003.2,0012.13,0005.18,0004.51
2021-10-03 06:48:00,,0832.0,5.01,0.00,30.2,29.2,00.0,39.4,31.9,15.8,0003.0,0012.05,0005.12,0004.50
2021-10-03 06:49:00,,0832.1,5.01,0.00,30.2,29.2,00.0,39.4,31.9,15.9,0003.1,0011.41,0005.10,0004.50
2021-10-03 06:50:00,,0832.0,4.99,0.00,30.2,29.2,00.0,39.4,31.9,15.9,0001.5,0011.76,0005.15,0004.50
2021-10-03 06:51:00,,0832.1,5.00,0.00,30.2,29.2,00.0,39.4,31.9,15.9,0000.6,0011.90,0005.16,0004.49
2021-10-03 06:52:00,,0832.1,5.00,0.00,30.2,29.2,00.0,39.4,31.9,15.9,0002.7,0011.76,0005.16,0004.48
2021-10-03 06:53:00,,0832.1,5.01,0.00,30.2,29.2,00.0,39.4,31.9,15.9,0001.3,0011.75,0005.15,0004.49
2021-10-03 06:54:00,,0832.0,4.99,0.00,30.2,29.1,00.0,39.4,31.9,15.8,0002.7,0011.77,0005.16,0004.50
2021-10-03 06:55:00,,0832.1,5.00,0.00,30.2,29.1,00.0,39.4,31.9,15.8,0001.8,0011.60,0005.19,0004.50
2021-10-03 06:56:00,,0832.0,5.01,0.00,30.2,29.1,00.0,39.4,31.9,15.8,0000.0,0010.63,0005.16,0004.50
2021-10-03 06:57:00,,0832.1,5.00,0.00,30.2,29.1,00.0,39.4,31.9,15.8,0001.9,0010.34,0005.11,0004.49
2021-10-03 06:58:00,,0832.1,5.00,0.00,30.2,29.1,00.0,39.4,31.9,15.8,0003.0,0010.20,0005.15,0004.50
2021-10-03 06:59:00,,0832.1,5.01,0.00,30.2,29.1,00.0,39.4,31.9,15.9,0002.9,0010.18,0005.15,0004.49
